TimeCST,TemperatureF,Dew PointF,Humidity,Sea Level PressureIn,VisibilityMPH,Wind Direction,Wind SpeedMPH,Gust SpeedMPH,PrecipitationIn,Events,Conditions,WindDirDegrees,DateUTC
12:53 AM,57.9,55.0,90,29.93,10.0,WNW,6.9,-,N/A,,Overcast,300,2013-11-18 06:53:00
1:53 AM,57.0,43.0,59,29.95,10.0,NW,5.8,-,N/A,,Scattered Clouds,320,2013-11-18 07:53:00
2:53 AM,55.0,39.0,55,29.97,10.0,NW,6.9,-,N/A,,Overcast,320,2013-11-18 08:53:00
3:53 AM,53.1,36.0,52,29.99,10.0,NW,4.6,-,N/A,,Scattered Clouds,310,2013-11-18 09:53:00
4:53 AM,51.1,33.1,50,29.99,10.0,NW,5.8,-,N/A,,Partly Cloudy,310,2013-11-18 10:53:00
5:53 AM,50.0,32.0,50,30.00,10.0,NW,4.6,-,N/A,,Clear,310,2013-11-18 11:53:00
6:53 AM,48.9,34.0,56,30.01,10.0,NNW,3.5,-,N/A,,Clear,330,2013-11-18 12:53:00
7:53 AM,52.0,35.1,53,30.02,10.0,North,4.6,-,N/A,,Clear,350,2013-11-18 13:53:00
8:53 AM,54.0,37.9,55,30.04,10.0,North,9.2,-,N/A,,Clear,360,2013-11-18 14:53:00
9:53 AM,55.0,32.0,42,30.07,10.0,NNW,10.4,-,N/A,,Clear,340,2013-11-18 15:53:00
10:53 AM,57.0,30.9,37,30.07,10.0,North,10.4,-,N/A,,Clear,350,2013-11-18 16:53:00
11:53 AM,57.0,30.9,37,30.06,10.0,WNW,12.7,-,N/A,,Clear,300,2013-11-18 17:53:00
12:53 PM,57.0,30.0,36,30.06,10.0,NNW,11.5,18.4,N/A,,Clear,340,2013-11-18 18:53:00
1:53 PM,57.0,30.9,37,30.06,10.0,NNW,6.9,16.1,N/A,,Clear,330,2013-11-18 19:53:00
2:53 PM,55.9,30.9,39,30.07,10.0,NW,10.4,17.3,N/A,,Clear,320,2013-11-18 20:53:00
3:53 PM,54.0,33.1,45,30.09,10.0,NNW,12.7,17.3,N/A,,Clear,330,2013-11-18 21:53:00
4:53 PM,52.0,33.1,49,30.11,10.0,NW,8.1,-,N/A,,Scattered Clouds,320,2013-11-18 22:53:00
5:53 PM,50.0,32.0,50,30.13,10.0,NW,6.9,-,N/A,,Clear,320,2013-11-18 23:53:00
6:53 PM,48.0,30.9,52,30.15,10.0,NW,8.1,-,N/A,,Clear,320,2013-11-19 00:53:00
7:53 PM,46.9,30.0,52,30.16,10.0,NNW,6.9,-,N/A,,Clear,330,2013-11-19 01:53:00
8:53 PM,45.0,28.9,53,30.17,10.0,NW,6.9,-,N/A,,Clear,320,2013-11-19 02:53:00
9:53 PM,44.1,28.9,55,30.17,10.0,NNW,5.8,-,N/A,,Clear,330,2013-11-19 03:53:00
10:53 PM,42.1,28.0,58,30.17,10.0,North,3.5,-,N/A,,Clear,360,2013-11-19 04:53:00
11:53 PM,41.0,27.0,57,30.19,10.0,North,5.8,-,N/A,,Clear,350,2013-11-19 05:53:00